Weather in Varzob

Tajikistan     38°46′26″N   68°49′07″E
temp.,
°C
wind,
m/s
gust,
m/s
humid.,
%
clouds,
%
prec.,
mm/h
press.,
hPa
HPBL,
m
12 may, wed
wed1223:00+11ne118298 2.2 101710
02:00+10nne2175100 0.0 101511
05:00+10nne227088 0.0 101511
08:00+14s11664 0.0 1015405
11:00+16s326410 0.7 1015980
14:00+16ssw326436 1.8 1014766
17:00+16s236447 4.1 1013799
20:00+12n228123 2.1 101318
13 may, thu
thu1323:00+11n22730 4.3 101315
02:00+11n43672 0.8 101224
05:00+10nne33686 1.2 101219
08:00+13sse116743 0.4 1013224
11:00+15s335910 1.4 10131038
14:00+16s335846 1.6 10121385
17:00+14ssw127486 7.6 1012253
20:00+11n43765 3.8 101433
14 may, fri
fri1423:00+10n33705 4.1 101428
02:00+10n446939 1.0 101434
05:00+9n44653 1.0 101438
08:00+15ne11492 0.0 1014443
11:00+17s32487 0.1 10131780
14:00+18ssw324632 0.9 10121681
17:00+16ne1255100 2.6 1012664
20:00+11n5665100 1.4 1015111
15 may, sat
sat1523:00+12n335426 1.4 101327
02:00+11n334924 0.0 101325
05:00+11n43480 0.0 101327
08:00+16nne11440 0.0 1013418
11:00+18s32421 0.0 10121599
14:00+19ssw32433 0.2 10111735
17:00+18ssw224411 0.4 10101153
20:00+14n545788 0.4 101252
16 may, sun
sun1623:00+12n55547 0.4 101352
02:00+12n43513 0.0 101229
05:00+12n43512 0.0 101328
08:00+17ne11451 0.0 1013446
11:00+19s32363 0.0 10132029
14:00+20s33357 0.0 10112000
17:00+20ssw21399 0.5 10111272
20:00+15n32501 0.1 101214